Location: Bougoura
(13.1861°N, 5.0773°W)
Time: 01:14:16
(UTC+00:00)

Cosmos 1844 Rocket - Pass Details

Date: 18 September 2020
Orbit: 823 x 846 km, 71.0° (Epoch: 21 October)

Event Time Altitude Azimuth Distance (km) Brightness Sun altitude
Rises 19:28:20 0° 194° (SSW) 3,348 5.9 -17.7°
Reaches altitude 10° 19:30:45 10° 193° (SSW) 2,414 5.2 -18.3°
Maximum altitude 19:36:17 84° 105° (ESE) 829 2.5 -19.6°
Drops below altitude 10° 19:41:49 10° 18° (NNE) 2,417 5.0 -20.9°
Sets 19:44:15 0° 18° (NNE) 3,351 5.7 -21.5°
